Home > Weather > Anderson > Past weeks

Flag for USA Past Weather in Anderson, South Carolina, USA — Yesterday and Last 2 Weeks

Now
83 °F

Sunny.


Feels Like: 90 °F
Forecast: 73 / 93 °F
Wind: 6 mph from Southeast

Location: Anderson County Airport

Current Time: Aug 26, 2016 at 7:35:19 PM

Latest Report: Aug 26, 2016 at 6:56 PM


Visibility: 10 mi

Pressure: 30.01 "Hg

Humidity: 77%

Dew Point: 75 °F

Location of AndersonLocation

Past Weather in Anderson — Graph

°F

Anderson Temperature Yesterday

Maximum temperature yesterday: 91 °F (at 3:56 PM)
Minimum temperature yesterday: 69 °F (at 6:56 AM)
Average temperature yesterday: 79 °F

High & Low Weather Summary for the Past Weeks

 TemperatureHumidityPressure
High96 °F (Aug 17, 2:56 PM)97% (Aug 18, 11:56 PM)30.29 "Hg (Aug 18, 11:56 PM)
Low69 °F (Aug 23, 3:56 AM)35% (Aug 17, 2:56 PM)29.85 "Hg (Aug 21, 2:56 AM)
Average80 °F74%30.08 "Hg
* Reported Aug 11 5:56 PM — Aug 26 5:56 PM, Anderson, Weather by CustomWeather, © 2016

Note: Actual official high and low records may vary slightly from our data, if they occured in-between our weather recording intervals... More about our weather records

Advertising

Anderson Weather History for the Previous 24 Hours

Scroll right to see more
 ConditionsComfort  
Time TempWeatherWind HumidityBarometerVisibility
5:56 PM
Fri, Aug 26
82 °FBroken clouds.5 mph74%30.02 "Hg10 mi
4:56 PM93 °FPassing clouds.10 mph50%30.01 "Hg10 mi
3:56 PM92 °FSunny.9 mph46%30.02 "Hg10 mi
2:56 PM95 °FPartly sunny.6 mph44%30.04 "Hg10 mi
1:56 PM91 °FPartly sunny.8 mph49%30.07 "Hg10 mi
12:56 PM91 °FScattered clouds.7 mph50%30.08 "Hg10 mi
11:56 AM92 °FSunny.7 mph49%30.09 "Hg10 mi
10:56 AM89 °FSunny.5 mph57%30.09 "Hg10 mi
9:56 AM85 °FSunny.3 mph68%30.09 "Hg10 mi
8:56 AM79 °FSunny.No wind88%30.08 "Hg10 mi
7:56 AM74 °FFog.No wind97%30.08 "Hg1 mi
6:56 AM72 °FPassing clouds.No wind93%30.08 "Hg10 mi
5:56 AM73 °FPassing clouds.No wind94%30.08 "Hg7 mi
4:56 AM74 °FClear.No wind94%30.08 "Hg10 mi
3:56 AM74 °FClear.No wind94%30.09 "Hg10 mi
2:56 AM74 °FClear.No wind94%30.09 "Hg10 mi
1:56 AM75 °FClear.No wind90%30.09 "Hg10 mi
12:56 AM77 °FClear.No wind85%30.09 "Hg10 mi
11:56 PM
Thu, Aug 25
77 °FClear.No wind88%30.09 "Hg10 mi
10:56 PM79 °FClear.No wind82%30.09 "Hg10 mi
9:56 PM80 °FClear.No wind76%30.08 "Hg10 mi
8:56 PM82 °FSunny.No wind72%30.06 "Hg10 mi
7:56 PM85 °FSunny.No wind63%30.06 "Hg10 mi
Weather by CustomWeather, © 2016

See weather overviewHow to use our weather pages